This is the latest recevied weather packets stored in our database for station/object KO6HRZ. If no packets are shown the sender has not sent any weather packets the latest 10 day(s).
| Time | Temp. | Humidity | Pressure | Rain* | Wind** | Luminosity | Snow |
|---|---|---|---|---|---|---|---|
| 1788040714 | 33.33° C | 26% | 1010.8 hPa | 0 mm | - | 703 W/m² | - |
| 1788040111 | 33.89° C | 26% | 1011 hPa | 0 mm | - | 709 W/m² | - |
| 1788039505 | 33.33° C | 25% | 1011 hPa | 0 mm | - | 720 W/m² | - |
| 1788038902 | 32.78° C | 28% | 1011.3 hPa | 0 mm | - | 724 W/m² | - |
| 1788038296 | 32.78° C | 31% | 1011.5 hPa | 0 mm | - | 727 W/m² | - |
| 1788037692 | 32.78° C | 30% | 1011.5 hPa | 0 mm | - | 734 W/m² | - |
| 1788037092 | 32.78° C | 32% | 1011.3 hPa | 0 mm | - | 739 W/m² | - |
| 1788036490 | 31.67° C | 34% | 1011.4 hPa | 0 mm | - | 739 W/m² | - |
| 1788035886 | 31.67° C | 35% | 1011.6 hPa | 0 mm | - | 740 W/m² | - |
| 1788035281 | 31.67° C | 35% | 1011.7 hPa | 0 mm | - | 740 W/m² | - |
| 1788034679 | 31.67° C | 36% | 1011.8 hPa | 0 mm | - | 736 W/m² | - |
| 1788034075 | 31.67° C | 38% | 1011.9 hPa | 0 mm | - | 728 W/m² | - |
| 1788033474 | 30° C | 39% | 1012.1 hPa | 0 mm | - | 725 W/m² | - |
| 1788032870 | 30.56° C | 39% | 1012.4 hPa | 0 mm | - | 721 W/m² | - |
| 1788032271 | 30.56° C | 40% | 1012.6 hPa | 0 mm | - | 723 W/m² | - |
| 1788031668 | 29.44° C | 43% | 1012.5 hPa | 0 mm | - | 727 W/m² | - |
| 1788031068 | 29.44° C | 43% | 1012.6 hPa | 0 mm | - | 725 W/m² | - |
| 1788030467 | 28.89° C | 44% | 1012.8 hPa | 0 mm | - | 717 W/m² | - |
| 1788029875 | 28.33° C | 47% | 1012.9 hPa | 0 mm | - | 698 W/m² | - |
| 1788029257 | 28.33° C | 47% | 1012.8 hPa | 0 mm | - | 660 W/m² | - |
| 1788028657 | 27.78° C | 49% | 1013 hPa | 0 mm | - | 606 W/m² | - |
| 1788028053 | 27.22° C | 49% | 1013.1 hPa | 0 mm | - | 570 W/m² | - |
| 1788027448 | 26.67° C | 50% | 1013 hPa | 0 mm | - | 565 W/m² | - |
| 1788026848 | 26.11° C | 52% | 1013.1 hPa | 0 mm | - | 576 W/m² | - |
| 1788026244 | 25.56° C | 53% | 1013.3 hPa | 0 mm | - | 573 W/m² | - |
* Rain latest hour (hover to see other rain measurements)
** Current wind speed in m/s (hover to see current wind gust speed)